Location: Powder Track
(41.8531°N, 72.3584°W)
Time: 22:34:20
(UTC+00:00)

Vanguard 1 Rocket - Pass Details

Date: 09 August 2021
Orbit: 650 x 4226 km, 34.3° (Epoch: 19 September)

Event Time Altitude Azimuth Distance (km) Brightness Sun altitude
Rises 08:52:22 0° 185° (S) 7,843 11.8 -10.6°
Reaches altitude 10° 09:00:10 10° 171° (S) 7,201 11.7 -9.4°
Maximum altitude 09:15:54 21° 133° (SE) 6,499 12.0 -6.9°
Drops below altitude 10° 09:30:38 10° 95° (E) 6,871 13.0 -4.4°
Sets 09:37:28 0° 81° (E) 7,423 13.9 -3.3°
